Location: Unspecified
(0.0000°N, 0.0000°E)
Time: 10:38:07
(UTC+02:00)

Haruka - Visible Passes

Search period start: 03 August 2015 00:00
Search period end: 13 August 2015 00:00
Orbit: 531 x 21236 km, 31.3° (Epoch: 03 August)

Date Brightness Start Highest point End Pass type
(mag) Time Alt. Az. Time Alt. Az. Time Alt. Az.
03 Aug 7.8 06:22:10 10° W 10:50:18 52° NNE 11:04:42 10° E visible
04 Aug 7.4 00:09:43 10° SW 00:46:05 78° E 05:08:17 10° NE visible
05 Aug 7.8 01:18:43 10° WSW 02:04:45 78° NNW 06:30:06 10° ENE visible
05 Aug 6.5 19:58:02 10° SSE 20:00:33 11° SE 20:06:47 10° ESE visible
06 Aug 8.2 02:29:43 10° WSW 04:38:56 57° NNW 07:46:19 10° ENE visible
06 Aug 6.6 21:01:08 10° S 21:10:57 29° SE 22:36:44 10° ENE visible
07 Aug 8.6 03:44:36 10° W 08:17:29 47° N 08:59:06 10° ENE visible
07 Aug 6.9 22:07:30 10° SSW 22:21:35 51° SE 02:10:19 10° NE visible
08 Aug 8.4 05:08:47 10° W 09:49:43 51° NNE 10:09:37 10° E visible
08 Aug 7.3 23:14:48 10° SW 23:34:40 75° SE 04:00:05 10° NE visible
09 Aug 7.4 07:10:25 10° WNW 11:07:06 62° NNE 11:18:33 10° ESE visible
10 Aug 7.7 00:23:05 10° WSW 00:54:26 84° NNW 05:28:29 10° ENE visible
11 Aug 8.0 01:32:55 10° WSW 02:35:07 67° NNW 06:47:58 10° ENE visible
11 Aug 6.4 20:07:44 10° S 20:14:42 20° SE 20:41:49 10° E visible
12 Aug 8.4 02:45:27 10° W 06:47:40 48° N 08:02:33 10° ENE visible
